Location: Unspecified
(0.0000°N, 0.0000°E)
Time: 15:03:59
(UTC+00:00)

FENGYUN 1C DEB - Pass Details

Date: 19 February 2026
Orbit: 819 x 963 km, 99.2° (Epoch: 3 October)

Event Time Altitude Azimuth Distance (km) Brightness Sun altitude
Rises 05:15:14 0° 190° (S) 3,518 ? -14.4°
Reaches altitude 10° 05:18:04 10° 202° (SSW) 2,554 ? -13.7°
Maximum altitude 05:22:37 25° 256° (WSW) 1,676 ? -12.6°
Enters shadow 05:26:41 12° 307° (NW) 2,367 ? -11.6°
